Location: Peterborough
(44.3091°N, 78.3197°W)
Time: 00:53:30
(UTC-04:00)

Altair - Pass Details

Date: 07 August 2024
Orbit: 1501 x 1682 km, 47.2° (Epoch: 19 September)

Event Time Altitude Azimuth Distance (km) Brightness Sun altitude
Rises 22:02:44 0° 291° (WNW) 4,689 11.4 -14.9°
Reaches altitude 10° 22:06:44 10° 276° (W) 3,681 10.3 -15.5°
Maximum altitude 22:13:02 21° 232° (SW) 2,885 9.0 -16.3°
Drops below altitude 10° 22:19:18 10° 188° (S) 3,641 9.1 -17.1°
Enters shadow 22:20:45 - 182° (S) 3,972 9.3 -17.3°
